Погода в Центральном

Россия / Тульская область     53°26′14″N   37°36′54″E
темп.,
°C
ветер,
м/с
пор.,
м/с
влажн.,
%
обл.,
%
осадки,
мм/ч
давл.,
гПа
погр.,
м
16 июня, ср
ср1600:00+17сз338871 0.7 101026
03:00+15ссз359410 0.7 101090
06:00+16ссз37946 0.0 1010200
09:00+20ссз46785 0.0 1012505
12:00+22ссз66662 0.0 10121202
15:00+23с56627 0.0 10131650
18:00+21с57780 0.8 1014651
21:00+17ссв34890 1.1 101651
17 июня, чт
чт1700:00+15ссв410930 0.0 1018211
03:00+13св310910 0.0 1019183
06:00+13ссв39882 0.0 1021231
09:00+17св58650 0.0 1022500
12:00+20св57540 0.0 10231157
15:00+21св56560 0.0 10231430
18:00+20св56705 0.0 1024932
21:00+15св35852 0.0 102570
18 июня, пт
пт1800:00+13всв37885 0.0 1026106
03:00+12в35780 0.0 102771
06:00+13в25830 0.0 1028119
09:00+18в46660 0.0 1028566
12:00+21в45582 0.0 10281277
15:00+22в445552 0.0 10281394
18:00+21в346813 0.0 10271184
21:00+16юв33842 0.0 102725
19 июня, сб
сб1900:00+14юв22880 0.0 102816
03:00+13юв22895 0.0 102813
06:00+15юв228614 0.0 102972
09:00+19вюв237211 0.0 1029498
12:00+22юв45610 0.0 10281149
15:00+23юв44560 0.0 10271165
18:00+22юв34693 0.0 10261004
21:00+17юв22844 0.0 102616
20 июня, вс
вс2000:00+15ююв22895 0.0 102717
03:00+14юв22904 0.0 102712
06:00+15юв23880 0.0 102796
09:00+20юв34700 0.0 1026522
12:00+23юв45590 0.0 10251095
15:00+24юв44560 0.0 10241266
18:00+23юв346897 0.0 1023976
21:00+18юв238361 0.0 102318